#timestamp,LO_Frequency,Hit 
1500454815.6,286046990.3,N
1500454835.5,286046990.7,N
1500454855.3,286046990.5,N
1500454875.1,286046990.9,N
1500454895.9,286046990.4,N
1500454915.7,286046988.7,N
1500454935.6,286046991.6,N
1500454955.4,286046989.4,N
1500454975.2,286046989.8,N
1500454995.1,286046989.7,N
1500454996.0,286046989.7,N
1500455015.8,286046989.5,N
1500455035.7,286046987.7,N
1500455055.5,286046987.2,N
1500455075.3,286046989.4,N
1500455095.2,286046989.7,N
1500455115.0,286046986.9,N
1500455115.9,286046986.9,N
1500455135.8,286046989.5,N
1500455155.6,286046987.4,N
1500455175.4,286046987.8,N
1500455195.3,286046988.0,N
1500455215.1,286046987.7,N
1500455235.9,286046985.8,Y
1500455255.7,286046992.1,N
1500455275.5,286046992.2,N
1500455295.4,286046992.4,N
1500455315.2,286046992.1,N
1500455335.0,286046992.1,N
1500455335.9,286046992.1,N
1500455355.8,286046994.1,N
1500455375.6,286046994.3,N
1500455395.5,286046992.1,N
1500455415.3,286046994.6,N
1500455435.1,286046994.7,N
1500455455.9,286046991.7,N
1500455475.7,286046992.1,N
1500455495.5,286046992.8,N
1500455515.4,286046992.5,N
1500455535.2,286046992.9,N
1500455555.1,286046990.1,N
1500455556.0,286046990.1,N
1500455575.8,286046990.4,N
1500455595.6,286046990.3,N
1500455615.5,286046991.0,N
1500455635.3,286046992.6,N
1500455655.2,286046990.2,N
1500455675.9,286046990.4,N
1500455695.7,286046990.1,N
1500455715.6,286046990.7,N
1500455735.4,286046988.5,N
1500455755.2,286046990.9,N
1500455775.1,286046991.3,N
1500455776.0,286046991.3,N
1500455795.8,286046990.3,N
1500455815.7,286046991.0,N
1500455835.5,286046991.0,N
1500455855.3,286046993.1,N
1500455875.2,286046990.7,N
1500455895.0,286046991.4,N
1500455895.9,286046991.4,N
1500455915.7,286046990.8,N
1500455935.6,286046990.4,N
1500455985.5,286046990.8,Y
1500455995.4,286046995.5,N
1500456015.2,286047000.2,N
1500456035.1,286047002.3,N
1500456036.0,286047002.3,N
1500456055.8,286047002.1,N
1500456075.6,286047002.5,N
1500456095.5,286047001.9,N
1500456115.3,286047001.7,N
1500456135.2,286047002.2,N
1500456155.9,286047001.3,N
1500456175.7,286047002.2,N
1500456195.6,286047001.6,N
1500456215.4,286047001.8,N
1500456235.2,286047004.1,N
1500456255.1,286047004.4,N
1500456256.0,286047004.4,N
1500456275.8,286047004.3,N
1500456295.7,286047003.1,N
1500456315.5,286047004.2,N
1500456335.3,286047001.3,N
1500456355.2,286047004.4,N
1500456375.0,286047001.7,N
1500456375.9,286047001.7,N
1500456395.8,286047001.8,N
1500456415.6,286047001.8,N
1500456435.4,286047001.3,N
1500456455.3,286047003.2,N
1500456475.1,286047004.2,N
1500456495.8,286047003.5,N
1500456515.7,286047003.1,N
1500456535.5,286047006.0,N
1500456555.4,286047005.9,N
1500456575.2,286047004.8,N
1500456595.0,286047005.0,N
1500456595.9,286047005.0,N
1500456615.8,286047005.0,N
1500456635.6,286047004.8,N
1500456655.4,286047004.5,N
1500456675.3,286047004.6,N
1500456695.1,286047004.9,N
1500456715.9,286047004.7,N
1500456735.7,286047005.8,N
1500456755.5,286047004.5,N
1500456775.4,286047005.4,N
1500456795.2,286047004.7,N
1500456815.1,286047005.7,N
1500456816.0,286047005.7,N
1500456835.8,286047005.4,N
1500456855.6,286047003.1,N
1500456875.5,286047006.0,N
1500456895.3,286047005.7,N
1500456915.1,286047003.0,N
1500456935.9,286047005.8,N
1500456955.7,286047005.7,N
1500456975.6,286047005.4,N
1500456995.4,286047003.0,N
1500457015.2,286047006.0,N
1500457035.1,286047005.1,N
1500457036.0,286047005.1,N
1500457055.8,286047004.7,N
1500457075.7,286047004.7,N
1500457095.5,286047007.5,N
1500457115.3,286047004.9,N
1500457135.2,286047005.1,N
1500457155.0,286047005.5,N
1500457155.9,286047005.5,N
1500457175.8,286047005.4,N
1500457195.6,286047004.8,N
1500457215.4,286047005.1,N
1500457235.3,286047005.2,N
1500457255.1,286047007.2,N
1500457275.8,286047004.6,N
1500457295.7,286047005.5,N
1500457315.5,286047005.8,N
1500457335.4,286047005.3,N
1500457355.2,286047005.8,N
1500457375.0,286047003.4,N
1500457375.9,286047003.4,N
1500457395.8,286047003.7,N
1500457415.6,286047003.5,N
1500457435.4,286047005.5,N
1500457455.3,286047005.9,N
1500457475.1,286047005.8,N
1500457495.9,286047003.3,N
1500457515.7,286047005.1,N
1500457535.5,286047005.0,N
1500457555.4,286047004.7,N
1500457575.2,286047005.7,N
1500457595.1,286047005.9,N
1500457596.0,286047005.9,N
1500457615.8,286047003.0,N
1500457635.6,286047005.9,N
1500457655.5,286047003.0,N
1500457675.3,286047005.4,N
1500457695.1,286047005.4,N
1500457715.9,286047005.9,N
1500457735.7,286047003.4,N
1500457755.6,286047003.0,N
1500457775.4,286047005.0,N
1500457795.2,286047004.8,N
1500457815.1,286047004.9,N
1500457816.0,286047004.9,N
1500457835.8,286047004.9,N
1500457855.7,286047004.5,N
1500457875.5,286047004.6,N
1500457895.3,286047005.7,N
1500457915.2,286047004.6,N
1500457935.0,286047007.1,N
1500457935.9,286047007.1,N
1500457955.7,286047007.6,N
1500457975.6,286047004.5,N
1500457995.4,286047005.0,N
1500458015.3,286047005.4,N
1500458035.1,286047002.9,N
1500458055.8,286047005.1,N
1500458075.7,286047005.7,N
1500458095.5,286047005.1,N
1500458115.4,286047005.0,N
1500458135.2,286047005.0,N
1500458155.0,286047004.6,N
1500458155.9,286047004.6,N
1500458175.8,286047007.3,N
1500458195.6,286047007.3,N
1500458215.5,286047007.1,N
1500458235.3,286047007.3,N
1500458255.1,286047006.7,N
1500458275.9,286047007.5,N
1500458295.7,286047007.5,N
1500458315.5,286047007.6,N
1500458335.4,286047006.9,N
1500458355.2,286047006.9,N
1500458375.1,286047007.6,N
1500458376.0,286047007.6,N
1500458395.8,286047007.3,N
